This is the latest recevied weather packets stored in our database for station/object N5PUP-13. If no packets are shown the sender has not sent any weather packets the latest 10 day(s).
| Time | Temp. | Humidity | Pressure | Rain* | Wind** | Luminosity | Snow |
|---|---|---|---|---|---|---|---|
| 1788010800 | 27.22° C | 44% | 1017.6 hPa | 0 mm | - | - | - |
| 1788010500 | 26.11° C | 44% | 1017.5 hPa | 0 mm | - | - | - |
| 1788010200 | 25.56° C | 45% | 1017.5 hPa | 0 mm | - | - | - |
| 1788009900 | 25.56° C | 45% | 1017.5 hPa | 0 mm | - | - | - |
| 1788009600 | 25° C | 46% | 1017.5 hPa | 0 mm | - | - | - |
| 1788009300 | 25° C | 46% | 1017.6 hPa | 0 mm | - | - | - |
| 1788009000 | 24.44° C | 46% | 1017.5 hPa | 0 mm | - | - | - |
| 1788008700 | 24.44° C | 47% | 1017.5 hPa | 0 mm | - | - | - |
| 1788008400 | 23.89° C | 47% | 1017.5 hPa | 0 mm | - | - | - |
| 1788008100 | 23.33° C | 47% | 1017.5 hPa | 0 mm | - | - | - |
| 1788007800 | 23.33° C | 48% | 1017.5 hPa | 0 mm | - | - | - |
| 1788007500 | 23.33° C | 48% | 1017.6 hPa | 0 mm | - | - | - |
| 1788007200 | 23.33° C | 48% | 1017.5 hPa | 0 mm | - | - | - |
| 1788006900 | 23.33° C | 48% | 1017.5 hPa | 0 mm | - | - | - |
| 1788006600 | 23.33° C | 47% | 1017.5 hPa | 0 mm | - | - | - |
| 1788006300 | 23.33° C | 47% | 1017.3 hPa | 0 mm | - | - | - |
| 1788006000 | 23.33° C | 47% | 1017.3 hPa | 0 mm | - | - | - |
| 1788005700 | 23.33° C | 46% | 1017.2 hPa | 0 mm | - | - | - |
| 1788005400 | 23.89° C | 46% | 1017.2 hPa | 0 mm | - | - | - |
| 1788005100 | 23.89° C | 46% | 1017.3 hPa | 0 mm | - | - | - |
| 1788004800 | 23.89° C | 45% | 1017.3 hPa | 0 mm | - | - | - |
| 1788004500 | 23.89° C | 45% | 1017.3 hPa | 0 mm | - | - | - |
| 1788004200 | 23.89° C | 45% | 1017.2 hPa | 0 mm | - | - | - |
| 1788003900 | 23.89° C | 45% | 1017.1 hPa | 0 mm | - | - | - |
| 1788003600 | 23.89° C | 45% | 1017.1 hPa | 0 mm | - | - | - |
* Rain latest hour (hover to see other rain measurements)
** Current wind speed in m/s (hover to see current wind gust speed)